Location: Vinland
(47.7731°N, 122.6974°W)
Time: 20:09:58
(UTC+00:00)

A-11 Canister half - All Passes

Search period start: 21 March 2023 00:00
Search period end: 31 March 2023 00:00
Orbit: 1512 x 1687 km, 47.2° (Epoch: 21 March)

Date Brightness Start Highest point End Pass type
(mag) Time Alt. Az. Time Alt. Az. Time Alt. Az.
21 Mar - 04:51:02 10° S 04:57:58 22° SE 05:05:00 10° E visible
21 Mar - 06:51:41 10° SW 07:01:20 57° SSE 07:11:12 10° ENE visible
21 Mar - 08:55:57 10° W 09:06:06 86° S 09:16:21 10° E visible
21 Mar - 11:01:05 10° W 11:11:16 78° SSW 11:21:23 10° ESE visible
21 Mar - 13:06:18 10° WNW 13:15:35 42° SW 13:24:44 10° SSE visible
21 Mar - 15:14:54 10° W 15:18:23 12° WSW 15:21:51 10° SW daylight
22 Mar - 04:28:33 10° S 04:35:07 20° SE 04:41:48 10° E visible
22 Mar - 06:28:50 10° SW 06:38:24 55° SSE 06:48:11 10° ENE visible
22 Mar - 08:32:58 10° WSW 08:43:06 85° S 08:53:21 10° E visible
22 Mar - 10:38:05 10° W 10:48:17 80° SSW 10:58:26 10° ESE visible
22 Mar - 12:43:16 10° WNW 12:52:40 44° SW 13:01:56 10° SSE visible
22 Mar - 14:51:14 10° W 14:55:34 14° WSW 14:59:52 10° SSW daylight
23 Mar - 04:06:06 10° SSE 04:12:17 19° SE 04:18:34 10° E visible
23 Mar - 06:06:01 10° SW 06:15:29 52° SSE 06:25:12 10° ENE visible
23 Mar - 08:10:01 10° WSW 08:20:06 84° S 08:30:22 10° E visible
23 Mar - 10:15:06 10° W 10:25:18 81° SSW 10:35:29 10° ESE visible
23 Mar - 12:20:16 10° WNW 12:29:46 46° SW 12:39:09 10° SSE visible
23 Mar - 14:27:45 10° W 14:32:45 15° WSW 14:37:42 10° SSW daylight
24 Mar - 03:43:42 10° SSE 03:49:28 17° SE 03:55:17 10° E visible
24 Mar - 05:43:11 10° SW 05:52:34 50° SE 06:02:12 10° ENE visible
24 Mar - 07:47:03 10° WSW 07:57:07 83° SSE 08:07:22 10° E visible
24 Mar - 09:52:07 10° W 10:02:18 82° SSW 10:12:31 10° ESE visible
24 Mar - 11:57:15 10° WNW 12:06:50 48° SW 12:16:20 10° SE visible
24 Mar - 14:04:22 10° W 14:09:55 16° SW 14:15:26 10° SSW daylight
25 Mar - 03:21:23 10° SSE 03:26:38 16° SE 03:31:57 10° E visible
25 Mar - 05:20:22 10° SW 05:29:39 48° SE 05:39:10 10° ENE visible
25 Mar - 07:24:06 10° WSW 07:34:08 82° SSE 07:44:22 10° E visible
25 Mar - 09:29:09 10° W 09:39:19 83° SSW 09:49:32 10° ESE visible
25 Mar - 11:34:15 10° WNW 11:43:55 51° SW 11:53:30 10° SE visible
25 Mar - 13:41:04 10° W 13:47:05 18° SW 13:53:05 10° SSW daylight
26 Mar - 02:59:10 10° SSE 03:03:49 14° ESE 03:08:32 10° E visible
26 Mar - 04:57:34 10° SSW 05:06:44 46° SE 05:16:10 10° ENE visible
26 Mar - 07:01:09 10° WSW 07:11:09 81° SSE 07:21:22 10° E visible
26 Mar - 09:06:10 10° W 09:16:20 84° S 09:26:34 10° ESE visible
26 Mar - 11:11:16 10° WNW 11:20:59 53° SSW 11:30:39 10° SE visible
26 Mar - 13:17:48 10° W 13:24:15 19° SW 13:30:39 10° SSW visible
27 Mar - 02:37:03 10° SSE 02:41:01 13° ESE 02:45:00 10° E daylight
27 Mar - 04:34:48 10° SSW 04:43:50 44° SE 04:53:08 10° ENE visible
27 Mar - 06:38:13 10° WSW 06:48:10 80° SSE 06:58:22 10° E visible
27 Mar - 08:43:12 10° W 08:53:20 85° S 09:03:34 10° ESE visible
27 Mar - 10:48:16 10° WNW 10:58:03 55° SSW 11:07:48 10° SE visible
27 Mar - 12:54:35 10° W 13:01:24 21° SW 13:08:12 10° S visible
28 Mar - 02:15:10 10° SE 02:18:12 12° ESE 02:21:15 10° ESE daylight
28 Mar - 04:12:02 10° SSW 04:20:56 42° SE 04:30:06 10° ENE visible
28 Mar - 06:15:17 10° WSW 06:25:11 78° SSE 06:35:23 10° E visible
28 Mar - 08:20:13 10° W 08:30:20 86° S 08:40:36 10° E visible
28 Mar - 10:25:17 10° WNW 10:35:06 57° SSW 10:44:55 10° SE visible
28 Mar - 12:31:24 10° W 12:38:34 22° SW 12:45:40 10° S visible
29 Mar - 01:53:51 10° SE 01:55:24 10° ESE 01:56:58 10° ESE daylight
29 Mar - 03:49:17 10° SSW 03:58:03 40° SE 04:07:05 10° ENE visible
29 Mar - 05:52:21 10° WSW 06:02:13 77° SSE 06:12:23 10° E visible
29 Mar - 07:57:15 10° W 08:07:20 87° S 08:17:36 10° E visible
29 Mar - 10:02:18 10° WNW 10:12:10 59° SSW 10:22:03 10° SE visible
29 Mar - 12:08:15 10° W 12:15:42 24° SW 12:23:07 10° S visible
30 Mar - 03:26:33 10° SSW 03:35:09 38° SE 03:44:02 10° ENE visible
30 Mar - 05:29:26 10° WSW 05:39:15 75° SSE 05:49:23 10° ENE visible
30 Mar - 07:34:16 10° W 07:44:21 87° S 07:54:36 10° E visible
30 Mar - 09:39:19 10° WNW 09:49:13 61° SSW 09:59:09 10° SE visible
30 Mar - 11:45:08 10° W 11:52:50 25° SW 12:00:32 10° S visible
